Wetterdaten: Samstag, 03.10.2015
Datum Zeit Auen-Temp. Temp gefhlt Luftfeuchte Luftdruck Regen Wind Richtung Richtung Taupunkt Windben
03.10.2015 00:00 8,7 C 8,7 C 88 % 1017,0 hPa 0,0 mm 0,3 km/h (0 Bft) W-NW 292 6,8 C 3,9 km/h (1 Bft)
03.10.2015 00:05 8,7 C 8,7 C 88 % 1017,0 hPa 0,0 mm 0,5 km/h (0 Bft) W 270 6,8 C 0,0 km/h (0 Bft)
03.10.2015 00:10 8,8 C 8,8 C 85 % 1017,0 hPa 0,0 mm 0,5 km/h (0 Bft) W 270 6,4 C 0,0 km/h (0 Bft)
03.10.2015 00:15 8,9 C 9,0 C 85 % 1016,9 hPa 0,0 mm 0,0 km/h (0 Bft) O-SO 112 6,5 C 0,0 km/h (0 Bft)
03.10.2015 00:20 9,3 C 9,5 C 85 % 1016,9 hPa 0,0 mm 0,0 km/h (0 Bft) O-SO 112 6,9 C 0,0 km/h (0 Bft)
03.10.2015 00:25 9,7 C 9,7 C 88 % 1016,9 hPa 0,0 mm 0,0 km/h (0 Bft) O 90 7,8 C 0,0 km/h (0 Bft)
03.10.2015 00:30 10,0 C 10,1 C 84 % 1016,9 hPa 0,0 mm 0,0 km/h (0 Bft) O-SO 112 7,4 C 0,0 km/h (0 Bft)
03.10.2015 00:35 10,2 C 10,2 C 88 % 1016,9 hPa 0,0 mm 0,0 km/h (0 Bft) O-SO 112 8,3 C 0,0 km/h (0 Bft)
03.10.2015 00:40 10,4 C 10,5 C 88 % 1016,9 hPa 0,0 mm 0,0 km/h (0 Bft) O-SO 112 8,5 C 0,0 km/h (0 Bft)
03.10.2015 00:45 10,2 C 10,5 C 87 % 1016,9 hPa 0,0 mm 0,5 km/h (0 Bft) W-NW 292 8,1 C 0,0 km/h (0 Bft)
03.10.2015 00:50 10,5 C 10,5 C 87 % 1016,9 hPa 0,0 mm 0,5 km/h (0 Bft) W 270 8,4 C 0,0 km/h (0 Bft)
03.10.2015 00:55 10,2 C 10,5 C 86 % 1016,7 hPa 0,0 mm 0,0 km/h (0 Bft) N-NO 22 8,0 C 0,0 km/h (0 Bft)
03.10.2015 01:00 10,3 C 10,5 C 86 % 1016,7 hPa 0,0 mm 0,0 km/h (0 Bft) W 270 8,1 C 0,0 km/h (0 Bft)
03.10.2015 01:05 10,1 C 10,5 C 85 % 1016,7 hPa 0,0 mm 0,0 km/h (0 Bft) NW 315 7,7 C 0,0 km/h (0 Bft)
03.10.2015 01:10 9,9 C 10,1 C 85 % 1016,7 hPa 0,0 mm 0,0 km/h (0 Bft) N 360 7,5 C 0,0 km/h (0 Bft)
03.10.2015 01:15 9,9 C 10,0 C 85 % 1016,6 hPa 0,0 mm 0,0 km/h (0 Bft) N 360 7,5 C 0,0 km/h (0 Bft)
03.10.2015 01:20 10,0 C 10,1 C 85 % 1016,6 hPa 0,0 mm 0,0 km/h (0 Bft) N-NO 22 7,6 C 0,0 km/h (0 Bft)
03.10.2015 01:25 10,1 C 10,3 C 85 % 1016,6 hPa 0,0 mm 0,0 km/h (0 Bft) N 360 7,7 C 0,0 km/h (0 Bft)
03.10.2015 01:30 10,2 C 10,3 C 85 % 1016,6 hPa 0,0 mm 0,0 km/h (0 Bft) N-NO 22 7,8 C 0,0 km/h (0 Bft)
03.10.2015 01:35 10,5 C 10,5 C 85 % 1016,7 hPa 0,0 mm 0,0 km/h (0 Bft) N 360 8,1 C 0,0 km/h (0 Bft)
03.10.2015 01:40 10,4 C 10,5 C 84 % 1016,7 hPa 0,0 mm 0,0 km/h (0 Bft) N 360 7,8 C 0,0 km/h (0 Bft)
03.10.2015 01:45 10,3 C 10,4 C 83 % 1016,7 hPa 0,0 mm 0,0 km/h (0 Bft) N-NO 22 7,5 C 0,0 km/h (0 Bft)
03.10.2015 01:50 10,0 C 10,3 C 83 % 1016,7 hPa 0,0 mm 0,0 km/h (0 Bft) N-NO 22 7,2 C 0,0 km/h (0 Bft)
03.10.2015 01:55 10,2 C 10,2 C 83 % 1016,5 hPa 0,0 mm 0,0 km/h (0 Bft) N-NO 22 7,4 C 0,0 km/h (0 Bft)
03.10.2015 02:00 10,3 C 10,2 C 83 % 1016,5 hPa 0,0 mm 0,0 km/h (0 Bft) N-NO 22 7,5 C 0,0 km/h (0 Bft)
03.10.2015 02:05 10,1 C 10,1 C 83 % 1016,5 hPa 0,0 mm 0,0 km/h (0 Bft) N 360 7,3 C 0,0 km/h (0 Bft)
03.10.2015 02:10 9,7 C 9,9 C 82 % 1016,5 hPa 0,0 mm 0,0 km/h (0 Bft) N-NO 22 6,8 C 0,0 km/h (0 Bft)
03.10.2015 02:15 10,0 C 9,9 C 82 % 1016,5 hPa 0,0 mm 0,0 km/h (0 Bft) N-NO 22 7,1 C 0,0 km/h (0 Bft)
03.10.2015 02:16 10,0 C 9,9 C 82 % 1016,5 hPa 0,0 mm 0,0 km/h (0 Bft) N-NO 22 7,1 C 0,0 km/h (0 Bft)
03.10.2015 02:20 10,0 C 9,9 C 82 % 1016,5 hPa 0,0 mm 0,0 km/h (0 Bft) N-NO 22 7,1 C 0,0 km/h (0 Bft)
03.10.2015 02:25 10,0 C 9,9 C 82 % 1016,5 hPa 0,0 mm 0,0 km/h (0 Bft) N-NO 22 7,1 C 0,0 km/h (0 Bft)
03.10.2015 02:30 10,2 C 10,1 C 82 % 1016,5 hPa 0,0 mm 0,0 km/h (0 Bft) N-NO 22 7,3 C 0,0 km/h (0 Bft)
03.10.2015 02:35 10,1 C 10,0 C 82 % 1016,5 hPa 0,0 mm 0,0 km/h (0 Bft) N-NO 22 7,2 C 0,0 km/h (0 Bft)
03.10.2015 02:40 10,2 C 10,1 C 82 % 1016,5 hPa 0,0 mm 0,0 km/h (0 Bft) N-NO 22 7,3 C 0,0 km/h (0 Bft)
03.10.2015 02:45 10,4 C 10,3 C 82 % 1016,5 hPa 0,0 mm 0,0 km/h (0 Bft) N-NO 22 7,5 C 0,0 km/h (0 Bft)
03.10.2015 02:50 10,5 C 10,4 C 81 % 1016,5 hPa 0,0 mm 0,0 km/h (0 Bft) N-NO 22 7,4 C 0,0 km/h (0 Bft)
03.10.2015 02:55 10,6 C 10,5 C 81 % 1016,4 hPa 0,0 mm 0,0 km/h (0 Bft) W-SW 247 7,5 C 3,9 km/h (1 Bft)
03.10.2015 03:00 11,1 C 11,0 C 80 % 1016,4 hPa 0,0 mm 0,0 km/h (0 Bft) S-SW 202 7,8 C 0,0 km/h (0 Bft)
03.10.2015 03:05 10,9 C 11,1 C 80 % 1016,4 hPa 0,0 mm 0,0 km/h (0 Bft) S-SW 202 7,6 C 0,0 km/h (0 Bft)
03.10.2015 03:10 11,4 C 11,3 C 79 % 1016,4 hPa 0,0 mm 0,0 km/h (0 Bft) S-SW 202 7,9 C 0,0 km/h (0 Bft)
03.10.2015 03:15 11,1 C 11,3 C 78 % 1016,2 hPa 0,0 mm 0,0 km/h (0 Bft) S-SW 202 7,4 C 0,0 km/h (0 Bft)
03.10.2015 03:20 11,1 C 11,3 C 78 % 1016,2 hPa 0,0 mm 0,0 km/h (0 Bft) S-SW 202 7,4 C 0,0 km/h (0 Bft)
03.10.2015 03:25 11,2 C 11,2 C 78 % 1016,2 hPa 0,0 mm 0,0 km/h (0 Bft) S-SW 202 7,5 C 0,0 km/h (0 Bft)
03.10.2015 03:30 11,2 C 11,2 C 77 % 1016,2 hPa 0,0 mm 0,0 km/h (0 Bft) S 180 7,3 C 0,0 km/h (0 Bft)
03.10.2015 03:35 11,5 C 11,4 C 77 % 1016,0 hPa 0,0 mm 0,0 km/h (0 Bft) S 180 7,6 C 0,0 km/h (0 Bft)
03.10.2015 03:40 11,3 C 11,5 C 77 % 1016,0 hPa 0,0 mm 0,0 km/h (0 Bft) S 180 7,4 C 0,0 km/h (0 Bft)
03.10.2015 03:45 11,7 C 11,7 C 77 % 1016,0 hPa 0,0 mm 0,0 km/h (0 Bft) S 180 7,8 C 0,0 km/h (0 Bft)
03.10.2015 03:50 11,6 C 11,9 C 77 % 1016,0 hPa 0,0 mm 0,0 km/h (0 Bft) S 180 7,7 C 0,0 km/h (0 Bft)
03.10.2015 03:55 11,6 C 11,9 C 76 % 1016,0 hPa 0,0 mm 0,0 km/h (0 Bft) W-NW 292 7,5 C 0,0 km/h (0 Bft)
03.10.2015 04:00 11,7 C 12,0 C 76 % 1016,0 hPa 0,0 mm 0,0 km/h (0 Bft) W-NW 292 7,6 C 0,0 km/h (0 Bft)
03.10.2015 04:05 12,0 C 12,1 C 76 % 1016,0 hPa 0,0 mm 0,0 km/h (0 Bft) NW 315 7,9 C 2,6 km/h (1 Bft)
03.10.2015 04:10 11,8 C 12,2 C 75 % 1016,0 hPa 0,0 mm 0,0 km/h (0 Bft) NW 315 7,5 C 0,0 km/h (0 Bft)
03.10.2015 04:15 11,8 C 12,1 C 75 % 1015,8 hPa 0,0 mm 0,0 km/h (0 Bft) NW 315 7,5 C 0,0 km/h (0 Bft)
03.10.2015 04:20 11,8 C 12,0 C 75 % 1015,8 hPa 0,0 mm 0,0 km/h (0 Bft) NW 315 7,5 C 0,0 km/h (0 Bft)
03.10.2015 04:25 11,4 C 12,0 C 75 % 1015,8 hPa 0,0 mm 0,0 km/h (0 Bft) N-NO 22 7,1 C 0,0 km/h (0 Bft)
03.10.2015 04:30 11,3 C 11,8 C 75 % 1015,8 hPa 0,0 mm 0,0 km/h (0 Bft) N-NO 22 7,0 C 0,0 km/h (0 Bft)
03.10.2015 04:35 11,5 C 11,8 C 75 % 1015,9 hPa 0,0 mm 0,0 km/h (0 Bft) NO 45 7,2 C 0,0 km/h (0 Bft)
03.10.2015 04:40 11,6 C 11,9 C 75 % 1015,9 hPa 0,0 mm 0,0 km/h (0 Bft) N-NW 337 7,3 C 0,0 km/h (0 Bft)
03.10.2015 04:45 11,5 C 11,9 C 75 % 1015,9 hPa 0,0 mm 0,0 km/h (0 Bft) N-NO 22 7,2 C 0,0 km/h (0 Bft)
03.10.2015 04:50 11,8 C 12,0 C 75 % 1015,9 hPa 0,0 mm 0,3 km/h (0 Bft) O-SO 112 7,5 C 6,0 km/h (2 Bft)
03.10.2015 04:55 11,9 C 12,1 C 75 % 1016,1 hPa 0,0 mm 0,8 km/h (0 Bft) NW 315 7,6 C 3,6 km/h (1 Bft)
03.10.2015 05:00 12,1 C 12,4 C 74 % 1016,1 hPa 0,0 mm 0,5 km/h (0 Bft) O-NO 67 7,6 C 0,0 km/h (0 Bft)
03.10.2015 05:05 12,5 C 12,5 C 74 % 1016,1 hPa 0,0 mm 0,8 km/h (0 Bft) SO 135 8,0 C 0,0 km/h (0 Bft)
03.10.2015 05:10 12,4 C 12,6 C 73 % 1016,1 hPa 0,0 mm 0,5 km/h (0 Bft) O-SO 112 7,7 C 0,0 km/h (0 Bft)
03.10.2015 05:15 12,5 C 12,7 C 73 % 1016,0 hPa 0,0 mm 0,0 km/h (0 Bft) O-SO 112 7,8 C 0,0 km/h (0 Bft)
03.10.2015 05:20 12,7 C 12,9 C 72 % 1016,0 hPa 0,0 mm 0,0 km/h (0 Bft) O 90 7,8 C 0,0 km/h (0 Bft)
03.10.2015 05:25 12,8 C 13,0 C 71 % 1016,0 hPa 0,0 mm 0,0 km/h (0 Bft) SO 135 7,7 C 0,0 km/h (0 Bft)
03.10.2015 05:30 12,7 C 13,0 C 71 % 1016,0 hPa 0,0 mm 0,0 km/h (0 Bft) O-NO 67 7,6 C 0,0 km/h (0 Bft)
03.10.2015 05:35 12,9 C 13,1 C 71 % 1015,8 hPa 0,0 mm 0,0 km/h (0 Bft) S-SO 157 7,8 C 0,0 km/h (0 Bft)
03.10.2015 05:40 13,0 C 13,3 C 70 % 1015,8 hPa 0,0 mm 0,0 km/h (0 Bft) SO 135 7,7 C 0,0 km/h (0 Bft)
03.10.2015 05:45 12,8 C 13,3 C 70 % 1015,8 hPa 0,0 mm 0,0 km/h (0 Bft) O-SO 112 7,5 C 0,0 km/h (0 Bft)
03.10.2015 05:50 13,2 C 13,4 C 70 % 1015,8 hPa 0,0 mm 0,0 km/h (0 Bft) O-SO 112 7,9 C 0,0 km/h (0 Bft)
03.10.2015 05:55 13,1 C 13,5 C 69 % 1015,6 hPa 0,0 mm 0,0 km/h (0 Bft) O 90 7,5 C 0,0 km/h (0 Bft)
03.10.2015 06:00 13,0 C 13,6 C 69 % 1015,6 hPa 0,0 mm 0,0 km/h (0 Bft) W-SW 247 7,4 C 2,8 km/h (1 Bft)
03.10.2015 06:05 13,9 C 13,9 C 68 % 1015,6 hPa 0,0 mm 1,6 km/h (1 Bft) W-SW 247 8,1 C 3,6 km/h (1 Bft)
03.10.2015 06:10 13,7 C 14,1 C 67 % 1015,6 hPa 0,0 mm 1,6 km/h (1 Bft) O-SO 112 7,7 C 8,0 km/h (2 Bft)
03.10.2015 06:15 13,5 C 14,1 C 67 % 1015,5 hPa 0,0 mm 0,5 km/h (0 Bft) O-SO 112 7,5 C 0,0 km/h (0 Bft)
03.10.2015 06:20 13,1 C 13,9 C 68 % 1015,5 hPa 0,0 mm 0,0 km/h (0 Bft) N-NO 22 7,3 C 0,0 km/h (0 Bft)
03.10.2015 06:25 13,1 C 13,8 C 68 % 1015,5 hPa 0,0 mm 0,0 km/h (0 Bft) N-NO 22 7,3 C 0,0 km/h (0 Bft)
03.10.2015 06:30 13,5 C 13,8 C 67 % 1015,5 hPa 0,0 mm 0,0 km/h (0 Bft) N-NO 22 7,5 C 0,0 km/h (0 Bft)
03.10.2015 06:35 13,4 C 13,8 C 67 % 1015,8 hPa 0,0 mm 0,3 km/h (0 Bft) O 90 7,4 C 0,0 km/h (0 Bft)
03.10.2015 06:40 13,1 C 13,6 C 67 % 1015,8 hPa 0,0 mm 0,8 km/h (0 Bft) N-NW 337 7,1 C 4,4 km/h (1 Bft)
03.10.2015 06:45 12,8 C 13,3 C 67 % 1015,8 hPa 0,0 mm 0,5 km/h (0 Bft) NW 315 6,8 C 0,0 km/h (0 Bft)
03.10.2015 06:50 12,8 C 13,0 C 68 % 1015,8 hPa 0,0 mm 0,5 km/h (0 Bft) O-NO 67 7,0 C 0,0 km/h (0 Bft)
03.10.2015 06:55 12,6 C 12,8 C 68 % 1015,9 hPa 0,0 mm 0,0 km/h (0 Bft) O-NO 67 6,9 C 0,0 km/h (0 Bft)
03.10.2015 07:00 12,4 C 12,5 C 69 % 1015,9 hPa 0,0 mm 0,0 km/h (0 Bft) W 270 6,9 C 2,8 km/h (1 Bft)
03.10.2015 07:05 12,4 C 12,4 C 69 % 1015,9 hPa 0,0 mm 0,3 km/h (0 Bft) S 180 6,9 C 0,0 km/h (0 Bft)
03.10.2015 07:10 11,9 C 12,0 C 69 % 1015,9 hPa 0,0 mm 0,8 km/h (0 Bft) W 270 6,4 C 2,6 km/h (1 Bft)
03.10.2015 07:15 11,4 C 11,5 C 69 % 1016,4 hPa 0,0 mm 0,8 km/h (0 Bft) SW 225 5,9 C 4,1 km/h (1 Bft)
03.10.2015 07:20 11,3 C 11,2 C 71 % 1016,4 hPa 0,0 mm 1,6 km/h (1 Bft) SW 225 6,2 C 4,4 km/h (1 Bft)
03.10.2015 07:25 10,9 C 10,9 C 72 % 1016,4 hPa 0,0 mm 1,8 km/h (1 Bft) W-SW 247 6,1 C 4,1 km/h (1 Bft)
03.10.2015 07:30 10,8 C 10,7 C 73 % 1016,4 hPa 0,0 mm 1,6 km/h (1 Bft) S 180 6,2 C 9,8 km/h (2 Bft)
03.10.2015 07:35 10,9 C 10,7 C 74 % 1016,8 hPa 0,0 mm 2,1 km/h (1 Bft) SW 225 6,5 C 5,2 km/h (1 Bft)
03.10.2015 07:40 10,5 C 10,4 C 73 % 1016,8 hPa 0,0 mm 1,6 km/h (1 Bft) W 270 5,9 C 0,0 km/h (0 Bft)
03.10.2015 07:45 10,5 C 10,4 C 75 % 1016,8 hPa 0,0 mm 0,8 km/h (0 Bft) SO 135 6,3 C 0,0 km/h (0 Bft)
03.10.2015 07:50 10,5 C 10,3 C 76 % 1016,8 hPa 0,0 mm 0,5 km/h (0 Bft) S 180 6,5 C 0,0 km/h (0 Bft)
03.10.2015 07:55 10,5 C 10,3 C 76 % 1016,9 hPa 0,0 mm 1,6 km/h (1 Bft) S 180 6,5 C 4,7 km/h (1 Bft)
03.10.2015 08:00 10,3 C 10,2 C 76 % 1016,9 hPa 0,0 mm 2,6 km/h (1 Bft) S 180 6,3 C 2,6 km/h (1 Bft)
03.10.2015 08:05 10,2 C 10,2 C 76 % 1016,9 hPa 0,0 mm 2,6 km/h (1 Bft) S 180 6,2 C 3,1 km/h (1 Bft)
03.10.2015 08:10 10,2 C 10,3 C 76 % 1016,9 hPa 0,0 mm 1,8 km/h (1 Bft) S-SO 157 6,2 C 3,4 km/h (1 Bft)
03.10.2015 08:15 10,3 C 10,4 C 76 % 1017,1 hPa 0,0 mm 2,1 km/h (1 Bft) S-SW 202 6,3 C 0,0 km/h (0 Bft)
03.10.2015 08:17 10,1 C 10,1 C 77 % 1017,1 hPa 0,0 mm 1,6 km/h (1 Bft) O-SO 112 6,3 C 0,0 km/h (0 Bft)
03.10.2015 08:20 10,1 C 10,1 C 77 % 1017,1 hPa 0,0 mm 1,6 km/h (1 Bft) O-SO 112 6,3 C 0,0 km/h (0 Bft)
03.10.2015 08:25 9,6 C 10,0 C 77 % 1017,1 hPa 0,0 mm 0,3 km/h (0 Bft) SO 135 5,8 C 0,0 km/h (0 Bft)
03.10.2015 08:30 9,3 C 9,7 C 77 % 1017,1 hPa 0,0 mm 0,0 km/h (0 Bft) O-SO 112 5,5 C 0,0 km/h (0 Bft)
03.10.2015 08:35 9,0 C 9,5 C 77 % 1017,3 hPa 0,0 mm 0,3 km/h (0 Bft) NW 315 5,2 C 0,0 km/h (0 Bft)
03.10.2015 08:40 9,0 C 9,4 C 79 % 1017,3 hPa 0,0 mm 0,3 km/h (0 Bft) O-NO 67 5,6 C 0,0 km/h (0 Bft)
03.10.2015 08:45 9,0 C 9,4 C 79 % 1017,3 hPa 0,0 mm 0,0 km/h (0 Bft) O-NO 67 5,6 C 0,0 km/h (0 Bft)
03.10.2015 08:50 9,2 C 9,3 C 79 % 1017,3 hPa 0,0 mm 0,0 km/h (0 Bft) O-NO 67 5,8 C 0,0 km/h (0 Bft)
03.10.2015 08:55 9,2 C 9,4 C 79 % 1017,5 hPa 0,0 mm 0,0 km/h (0 Bft) O-NO 67 5,8 C 0,0 km/h (0 Bft)
03.10.2015 09:00 9,5 C 10,1 C 79 % 1017,5 hPa 0,0 mm 0,0 km/h (0 Bft) O-NO 67 6,0 C 0,0 km/h (0 Bft)
03.10.2015 09:05 9,7 C 10,1 C 79 % 1017,5 hPa 0,0 mm 0,0 km/h (0 Bft) O-NO 67 6,2 C 0,0 km/h (0 Bft)
03.10.2015 09:10 10,1 C 12,1 C 79 % 1017,5 hPa 0,0 mm 0,0 km/h (0 Bft) S 180 6,6 C 0,0 km/h (0 Bft)
03.10.2015 09:15 10,2 C 14,4 C 81 % 1017,6 hPa 0,0 mm 0,0 km/h (0 Bft) SO 135 7,1 C 0,0 km/h (0 Bft)
03.10.2015 09:20 10,1 C 16,1 C 79 % 1017,6 hPa 0,0 mm 0,0 km/h (0 Bft) O-SO 112 6,6 C 0,0 km/h (0 Bft)
03.10.2015 09:25 10,4 C 17,4 C 79 % 1017,6 hPa 0,0 mm 0,0 km/h (0 Bft) O 90 6,9 C 0,0 km/h (0 Bft)
03.10.2015 09:30 10,8 C 18,8 C 79 % 1017,6 hPa 0,0 mm 0,0 km/h (0 Bft) S 180 7,3 C 0,0 km/h (0 Bft)
03.10.2015 09:35 11,1 C 19,4 C 78 % 1017,6 hPa 0,0 mm 1,3 km/h (1 Bft) NW 315 7,4 C 6,0 km/h (2 Bft)
03.10.2015 09:40 11,9 C 19,1 C 78 % 1017,6 hPa 0,0 mm 6,2 km/h (2 Bft) NW 315 8,2 C 16,1 km/h (3 Bft)
03.10.2015 09:45 12,3 C 18,6 C 77 % 1017,6 hPa 0,0 mm 8,5 km/h (2 Bft) W-NW 292 8,4 C 13,7 km/h (3 Bft)
03.10.2015 09:50 12,5 C 18,0 C 76 % 1017,6 hPa 0,0 mm 9,6 km/h (2 Bft) NW 315 8,4 C 17,3 km/h (3 Bft)
03.10.2015 09:55 12,7 C 17,9 C 75 % 1018,1 hPa 0,0 mm 9,6 km/h (2 Bft) NW 315 8,4 C 9,1 km/h (2 Bft)
03.10.2015 10:00 12,9 C 18,3 C 75 % 1018,1 hPa 0,0 mm 8,0 km/h (2 Bft) NW 315 8,6 C 19,2 km/h (3 Bft)
03.10.2015 10:05 13,0 C 18,6 C 74 % 1018,1 hPa 0,0 mm 6,5 km/h (2 Bft) W-NW 292 8,5 C 6,5 km/h (2 Bft)
03.10.2015 10:10 13,1 C 18,9 C 73 % 1018,1 hPa 0,0 mm 5,7 km/h (1 Bft) NW 315 8,4 C 14,8 km/h (3 Bft)
03.10.2015 10:15 13,1 C 18,8 C 73 % 1019,2 hPa 0,0 mm 6,0 km/h (2 Bft) NW 315 8,4 C 4,7 km/h (1 Bft)
03.10.2015 10:20 13,1 C 17,7 C 73 % 1019,2 hPa 0,0 mm 6,7 km/h (2 Bft) NW 315 8,4 C 8,5 km/h (2 Bft)
03.10.2015 10:25 13,1 C 16,4 C 72 % 1019,2 hPa 0,0 mm 7,5 km/h (2 Bft) NW 315 8,2 C 6,2 km/h (2 Bft)
03.10.2015 10:30 13,1 C 15,7 C 72 % 1019,2 hPa 0,0 mm 6,2 km/h (2 Bft) W-SW 247 8,2 C 2,8 km/h (1 Bft)
03.10.2015 10:35 13,2 C 15,8 C 72 % 1019,5 hPa 0,0 mm 3,9 km/h (1 Bft) NW 315 8,3 C 5,2 km/h (1 Bft)
03.10.2015 10:40 13,6 C 16,4 C 72 % 1019,5 hPa 0,0 mm 3,4 km/h (1 Bft) W-SW 247 8,6 C 0,0 km/h (0 Bft)
03.10.2015 10:45 13,9 C 17,2 C 72 % 1019,5 hPa 0,0 mm 3,9 km/h (1 Bft) S 180 8,9 C 2,6 km/h (1 Bft)
03.10.2015 10:50 14,3 C 18,6 C 70 % 1019,5 hPa 0,0 mm 4,9 km/h (1 Bft) NW 315 8,9 C 8,0 km/h (2 Bft)
03.10.2015 10:55 14,7 C 19,2 C 70 % 1019,6 hPa 0,0 mm 6,5 km/h (2 Bft) W 270 9,3 C 7,8 km/h (2 Bft)
03.10.2015 11:00 15,2 C 19,8 C 69 % 1019,6 hPa 0,0 mm 6,7 km/h (2 Bft) W-SW 247 9,6 C 4,9 km/h (1 Bft)
03.10.2015 11:05 15,2 C 19,7 C 68 % 1019,6 hPa 0,0 mm 8,0 km/h (2 Bft) N-NW 337 9,3 C 14,0 km/h (3 Bft)
03.10.2015 11:10 15,5 C 20,0 C 68 % 1019,6 hPa 0,0 mm 8,5 km/h (2 Bft) W 270 9,6 C 8,5 km/h (2 Bft)
03.10.2015 11:15 15,6 C 20,2 C 67 % 1020,2 hPa 0,0 mm 8,0 km/h (2 Bft) NW 315 9,5 C 7,3 km/h (2 Bft)
03.10.2015 11:20 15,8 C 20,3 C 66 % 1020,2 hPa 0,0 mm 7,8 km/h (2 Bft) W-NW 292 9,5 C 2,8 km/h (1 Bft)
03.10.2015 11:25 16,1 C 20,7 C 66 % 1020,2 hPa 0,0 mm 7,3 km/h (2 Bft) W-SW 247 9,7 C 15,5 km/h (3 Bft)
03.10.2015 11:30 16,3 C 21,0 C 65 % 1020,2 hPa 0,0 mm 6,2 km/h (2 Bft) W-SW 247 9,7 C 9,3 km/h (2 Bft)
03.10.2015 11:35 16,4 C 21,0 C 65 % 1020,7 hPa 0,0 mm 7,5 km/h (2 Bft) NW 315 9,8 C 6,2 km/h (2 Bft)
03.10.2015 11:40 16,8 C 21,1 C 65 % 1020,7 hPa 0,0 mm 7,3 km/h (2 Bft) NW 315 10,2 C 19,9 km/h (4 Bft)
03.10.2015 11:45 16,8 C 20,8 C 65 % 1020,7 hPa 0,0 mm 6,5 km/h (2 Bft) W-NW 292 10,2 C 7,8 km/h (2 Bft)
03.10.2015 11:50 16,8 C 20,4 C 64 % 1020,7 hPa 0,0 mm 9,3 km/h (2 Bft) W 270 10,0 C 21,5 km/h (4 Bft)
03.10.2015 11:55 16,5 C 20,3 C 63 % 1020,6 hPa 0,0 mm 9,8 km/h (2 Bft) W 270 9,4 C 5,7 km/h (1 Bft)
03.10.2015 12:00 16,8 C 20,4 C 63 % 1020,6 hPa 0,0 mm 9,3 km/h (2 Bft) W 270 9,7 C 14,8 km/h (3 Bft)
03.10.2015 12:05 17,0 C 20,6 C 63 % 1020,6 hPa 0,0 mm 8,5 km/h (2 Bft) N-NO 22 9,9 C 10,9 km/h (2 Bft)
03.10.2015 12:10 17,1 C 20,5 C 63 % 1020,6 hPa 0,0 mm 9,1 km/h (2 Bft) NW 315 10,0 C 13,2 km/h (3 Bft)
03.10.2015 12:15 17,3 C 20,4 C 63 % 1020,4 hPa 0,0 mm 9,8 km/h (2 Bft) NW 315 10,2 C 10,1 km/h (2 Bft)
03.10.2015 12:20 17,1 C 21,2 C 62 % 1020,4 hPa 0,0 mm 8,8 km/h (2 Bft) W-SW 247 9,8 C 12,4 km/h (3 Bft)
03.10.2015 12:25 17,2 C 21,8 C 61 % 1020,4 hPa 0,0 mm 8,3 km/h (2 Bft) W 270 9,6 C 8,0 km/h (2 Bft)
03.10.2015 12:30 17,5 C 22,3 C 61 % 1020,4 hPa 0,0 mm 7,3 km/h (2 Bft) W 270 9,9 C 7,0 km/h (2 Bft)
03.10.2015 12:35 17,3 C 22,3 C 61 % 1020,1 hPa 0,0 mm 6,7 km/h (2 Bft) W-NW 292 9,7 C 6,5 km/h (2 Bft)
03.10.2015 12:40 17,7 C 22,1 C 61 % 1020,1 hPa 0,0 mm 7,0 km/h (2 Bft) W 270 10,1 C 16,1 km/h (3 Bft)
03.10.2015 12:45 17,7 C 21,9 C 61 % 1020,1 hPa 0,0 mm 7,8 km/h (2 Bft) W 270 10,1 C 13,5 km/h (3 Bft)
03.10.2015 12:50 16,8 C 20,4 C 61 % 1020,1 hPa 0,0 mm 7,3 km/h (2 Bft) NW 315 9,2 C 22,8 km/h (4 Bft)
03.10.2015 12:55 16,5 C 19,4 C 61 % 1019,8 hPa 0,0 mm 6,5 km/h (2 Bft) W-SW 247 9,0 C 6,5 km/h (2 Bft)
03.10.2015 13:00 16,9 C 19,6 C 62 % 1019,8 hPa 0,0 mm 4,9 km/h (1 Bft) NW 315 9,6 C 9,8 km/h (2 Bft)
03.10.2015 13:05 17,7 C 20,2 C 61 % 1019,8 hPa 0,0 mm 5,7 km/h (1 Bft) W-SW 247 10,1 C 5,7 km/h (1 Bft)
03.10.2015 13:10 18,0 C 20,6 C 59 % 1019,8 hPa 0,0 mm 8,5 km/h (2 Bft) W-SW 247 9,9 C 7,5 km/h (2 Bft)
03.10.2015 13:15 18,1 C 20,8 C 59 % 1019,6 hPa 0,0 mm 8,0 km/h (2 Bft) W 270 10,0 C 10,6 km/h (2 Bft)
03.10.2015 13:20 18,5 C 21,5 C 59 % 1019,6 hPa 0,0 mm 6,0 km/h (2 Bft) S 180 10,3 C 13,2 km/h (3 Bft)
03.10.2015 13:25 18,1 C 21,8 C 58 % 1019,6 hPa 0,0 mm 6,7 km/h (2 Bft) NW 315 9,7 C 10,4 km/h (2 Bft)
03.10.2015 13:30 18,5 C 22,3 C 58 % 1019,6 hPa 0,0 mm 9,6 km/h (2 Bft) W-SW 247 10,1 C 13,2 km/h (3 Bft)
03.10.2015 13:35 18,6 C 22,7 C 58 % 1019,7 hPa 0,0 mm 9,6 km/h (2 Bft) NW 315 10,2 C 16,6 km/h (3 Bft)
03.10.2015 13:40 18,9 C 22,9 C 58 % 1019,7 hPa 0,0 mm 9,1 km/h (2 Bft) N-NO 22 10,5 C 4,1 km/h (1 Bft)
03.10.2015 13:45 19,2 C 23,6 C 58 % 1019,7 hPa 0,0 mm 7,5 km/h (2 Bft) W 270 10,7 C 4,1 km/h (1 Bft)
03.10.2015 13:50 19,3 C 24,4 C 58 % 1019,7 hPa 0,0 mm 4,7 km/h (1 Bft) W 270 10,8 C 0,0 km/h (0 Bft)
03.10.2015 13:55 19,6 C 24,7 C 57 % 1019,6 hPa 0,0 mm 4,4 km/h (1 Bft) W 270 10,8 C 5,4 km/h (1 Bft)
03.10.2015 14:00 19,8 C 25,0 C 57 % 1019,6 hPa 0,0 mm 3,4 km/h (1 Bft) NW 315 11,0 C 3,1 km/h (1 Bft)
03.10.2015 14:05 19,8 C 25,0 C 57 % 1019,6 hPa 0,0 mm 3,4 km/h (1 Bft) W-NW 292 11,0 C 9,6 km/h (2 Bft)
03.10.2015 14:10 19,6 C 24,4 C 56 % 1019,6 hPa 0,0 mm 6,0 km/h (2 Bft) NW 315 10,6 C 8,5 km/h (2 Bft)
03.10.2015 14:15 19,8 C 24,1 C 55 % 1019,4 hPa 0,0 mm 5,4 km/h (1 Bft) W-SW 247 10,5 C 7,5 km/h (2 Bft)
03.10.2015 14:18 19,8 C 24,1 C 55 % 1019,4 hPa 0,0 mm 5,4 km/h (1 Bft) W-SW 247 10,5 C 7,5 km/h (2 Bft)
03.10.2015 14:20 19,8 C 24,1 C 55 % 1019,4 hPa 0,0 mm 5,4 km/h (1 Bft) W-SW 247 10,5 C 7,5 km/h (2 Bft)
03.10.2015 14:25 19,9 C 24,3 C 56 % 1019,4 hPa 0,0 mm 4,7 km/h (1 Bft) NW 315 10,9 C 3,4 km/h (1 Bft)
03.10.2015 14:30 19,9 C 24,2 C 55 % 1019,4 hPa 0,0 mm 5,2 km/h (1 Bft) N-NO 22 10,6 C 4,4 km/h (1 Bft)
03.10.2015 14:35 19,7 C 24,1 C 55 % 1019,1 hPa 0,0 mm 6,2 km/h (2 Bft) O-NO 67 10,4 C 8,5 km/h (2 Bft)
03.10.2015 14:40 19,4 C 24,0 C 55 % 1019,1 hPa 0,0 mm 5,7 km/h (1 Bft) O-NO 67 10,1 C 9,3 km/h (2 Bft)
03.10.2015 14:45 19,1 C 23,9 C 55 % 1019,1 hPa 0,0 mm 5,2 km/h (1 Bft) NO 45 9,8 C 3,6 km/h (1 Bft)
03.10.2015 14:50 19,4 C 23,9 C 55 % 1019,1 hPa 0,0 mm 6,2 km/h (2 Bft) N-NW 337 10,1 C 9,3 km/h (2 Bft)
03.10.2015 14:55 19,4 C 24,0 C 55 % 1018,8 hPa 0,0 mm 5,4 km/h (1 Bft) W 270 10,1 C 9,3 km/h (2 Bft)
03.10.2015 15:00 19,4 C 24,3 C 55 % 1018,8 hPa 0,0 mm 3,9 km/h (1 Bft) NW 315 10,1 C 12,2 km/h (2 Bft)
03.10.2015 15:05 19,3 C 24,2 C 55 % 1018,8 hPa 0,0 mm 4,1 km/h (1 Bft) N-NW 337 10,0 C 0,0 km/h (0 Bft)
03.10.2015 15:10 19,8 C 24,0 C 54 % 1018,8 hPa 0,0 mm 5,2 km/h (1 Bft) O-SO 112 10,2 C 6,5 km/h (2 Bft)
03.10.2015 15:15 19,7 C 24,1 C 55 % 1018,4 hPa 0,0 mm 4,9 km/h (1 Bft) NW 315 10,4 C 6,7 km/h (2 Bft)
03.10.2015 15:20 20,3 C 24,4 C 55 % 1018,4 hPa 0,0 mm 3,4 km/h (1 Bft) N-NO 22 11,0 C 0,0 km/h (0 Bft)
03.10.2015 15:25 20,5 C 25,0 C 54 % 1018,4 hPa 0,0 mm 2,6 km/h (1 Bft) NW 315 10,9 C 6,5 km/h (2 Bft)
03.10.2015 15:30 20,1 C 24,8 C 54 % 1018,4 hPa 0,0 mm 3,1 km/h (1 Bft) O-NO 67 10,5 C 2,8 km/h (1 Bft)
03.10.2015 15:35 19,6 C 24,8 C 55 % 1018,3 hPa 0,0 mm 3,4 km/h (1 Bft) O-SO 112 10,3 C 2,8 km/h (1 Bft)
03.10.2015 15:40 19,4 C 24,7 C 55 % 1018,3 hPa 0,0 mm 3,1 km/h (1 Bft) O-NO 67 10,1 C 4,1 km/h (1 Bft)
03.10.2015 15:45 19,2 C 24,7 C 55 % 1018,3 hPa 0,0 mm 2,1 km/h (1 Bft) O-NO 67 9,9 C 2,8 km/h (1 Bft)
03.10.2015 15:50 18,5 C 24,5 C 56 % 1018,3 hPa 0,0 mm 1,3 km/h (1 Bft) O-NO 67 9,6 C 3,9 km/h (1 Bft)
03.10.2015 15:55 18,6 C 23,5 C 56 % 1017,9 hPa 0,0 mm 1,0 km/h (0 Bft) O-NO 67 9,6 C 0,0 km/h (0 Bft)
03.10.2015 16:00 19,2 C 24,3 C 56 % 1017,9 hPa 0,0 mm 0,5 km/h (0 Bft) O-NO 67 10,2 C 0,0 km/h (0 Bft)
03.10.2015 16:05 19,2 C 24,8 C 56 % 1017,9 hPa 0,0 mm 0,0 km/h (0 Bft) O-NO 67 10,2 C 0,0 km/h (0 Bft)
03.10.2015 16:10 18,8 C 24,7 C 56 % 1017,9 hPa 0,0 mm 1,0 km/h (0 Bft) O-NO 67 9,8 C 0,0 km/h (0 Bft)
03.10.2015 16:15 19,2 C 24,8 C 56 % 1017,4 hPa 0,0 mm 1,8 km/h (1 Bft) N-NW 337 10,2 C 4,1 km/h (1 Bft)
03.10.2015 16:20 19,0 C 24,7 C 56 % 1017,4 hPa 0,0 mm 1,3 km/h (1 Bft) O-NO 67 10,0 C 0,0 km/h (0 Bft)
03.10.2015 16:25 18,7 C 24,7 C 56 % 1017,4 hPa 0,0 mm 1,0 km/h (0 Bft) NO 45 9,7 C 0,0 km/h (0 Bft)
03.10.2015 16:30 18,2 C 24,7 C 57 % 1017,4 hPa 0,0 mm 1,8 km/h (1 Bft) NO 45 9,5 C 3,1 km/h (1 Bft)
03.10.2015 16:35 18,0 C 24,4 C 57 % 1017,1 hPa 0,0 mm 2,1 km/h (1 Bft) O-NO 67 9,4 C 3,9 km/h (1 Bft)
03.10.2015 16:40 17,8 C 23,1 C 57 % 1017,1 hPa 0,0 mm 2,8 km/h (1 Bft) O-NO 67 9,2 C 2,6 km/h (1 Bft)
03.10.2015 16:45 17,7 C 21,5 C 58 % 1017,1 hPa 0,0 mm 2,8 km/h (1 Bft) N-NO 22 9,3 C 0,0 km/h (0 Bft)
03.10.2015 16:50 17,6 C 19,8 C 57 % 1017,1 hPa 0,0 mm 3,1 km/h (1 Bft) N-NW 337 9,0 C 5,7 km/h (1 Bft)
03.10.2015 16:55 17,6 C 19,3 C 57 % 1016,9 hPa 0,0 mm 4,7 km/h (1 Bft) N 360 9,0 C 5,7 km/h (1 Bft)
03.10.2015 17:00 17,3 C 18,6 C 58 % 1016,9 hPa 0,0 mm 5,4 km/h (1 Bft) O-NO 67 9,0 C 0,0 km/h (0 Bft)
03.10.2015 17:05 17,1 C 18,2 C 58 % 1016,9 hPa 0,0 mm 3,6 km/h (1 Bft) O 90 8,8 C 0,0 km/h (0 Bft)
03.10.2015 17:10 16,7 C 17,8 C 59 % 1016,9 hPa 0,0 mm 1,3 km/h (1 Bft) O-NO 67 8,6 C 4,7 km/h (1 Bft)
03.10.2015 17:15 16,8 C 17,8 C 59 % 1016,6 hPa 0,0 mm 2,1 km/h (1 Bft) N-NO 22 8,7 C 4,4 km/h (1 Bft)
03.10.2015 17:20 16,8 C 17,5 C 59 % 1016,6 hPa 0,0 mm 2,6 km/h (1 Bft) O-SO 112 8,7 C 7,5 km/h (2 Bft)
03.10.2015 17:25 16,7 C 17,3 C 60 % 1016,6 hPa 0,0 mm 2,3 km/h (1 Bft) O-NO 67 8,9 C 2,6 km/h (1 Bft)
03.10.2015 17:30 16,7 C 17,2 C 60 % 1016,6 hPa 0,0 mm 3,6 km/h (1 Bft) O-SO 112 8,9 C 0,0 km/h (0 Bft)
03.10.2015 17:35 16,4 C 17,1 C 60 % 1016,5 hPa 0,0 mm 2,6 km/h (1 Bft) SO 135 8,6 C 0,0 km/h (0 Bft)
03.10.2015 17:40 16,0 C 16,7 C 61 % 1016,5 hPa 0,0 mm 0,3 km/h (0 Bft) NW 315 8,5 C 0,0 km/h (0 Bft)
03.10.2015 17:45 15,8 C 16,5 C 63 % 1016,5 hPa 0,0 mm 0,3 km/h (0 Bft) O-NO 67 8,8 C 3,6 km/h (1 Bft)
03.10.2015 17:50 15,7 C 16,1 C 63 % 1016,5 hPa 0,0 mm 1,0 km/h (0 Bft) N-NO 22 8,7 C 0,0 km/h (0 Bft)
03.10.2015 17:55 15,5 C 15,9 C 64 % 1016,4 hPa 0,0 mm 1,0 km/h (0 Bft) O-SO 112 8,7 C 0,0 km/h (0 Bft)
03.10.2015 18:00 15,5 C 15,5 C 65 % 1016,4 hPa 0,0 mm 0,0 km/h (0 Bft) O-SO 112 8,9 C 0,0 km/h (0 Bft)
03.10.2015 18:05 15,5 C 15,5 C 66 % 1016,4 hPa 0,0 mm 0,0 km/h (0 Bft) O-SO 112 9,2 C 0,0 km/h (0 Bft)
03.10.2015 18:10 15,4 C 15,4 C 67 % 1016,4 hPa 0,0 mm 0,0 km/h (0 Bft) O-SO 112 9,3 C 0,0 km/h (0 Bft)
03.10.2015 18:15 15,3 C 15,3 C 67 % 1016,4 hPa 0,0 mm 0,0 km/h (0 Bft) O-SO 112 9,2 C 0,0 km/h (0 Bft)
03.10.2015 18:20 15,2 C 15,2 C 68 % 1016,4 hPa 0,0 mm 0,0 km/h (0 Bft) O-SO 112 9,3 C 0,0 km/h (0 Bft)
03.10.2015 18:25 15,1 C 15,1 C 68 % 1016,4 hPa 0,0 mm 0,0 km/h (0 Bft) O-SO 112 9,2 C 0,0 km/h (0 Bft)
03.10.2015 18:30 14,9 C 15,0 C 69 % 1016,4 hPa 0,0 mm 0,0 km/h (0 Bft) O-SO 112 9,3 C 0,0 km/h (0 Bft)
03.10.2015 18:35 14,7 C 14,8 C 70 % 1016,3 hPa 0,0 mm 0,0 km/h (0 Bft) O-SO 112 9,3 C 0,0 km/h (0 Bft)
03.10.2015 18:40 14,2 C 14,3 C 72 % 1016,3 hPa 0,0 mm 0,0 km/h (0 Bft) O-SO 112 9,2 C 0,0 km/h (0 Bft)
03.10.2015 18:45 14,2 C 14,2 C 72 % 1016,3 hPa 0,0 mm 0,0 km/h (0 Bft) O-SO 112 9,2 C 0,0 km/h (0 Bft)
03.10.2015 18:50 13,9 C 13,8 C 73 % 1016,3 hPa 0,0 mm 0,0 km/h (0 Bft) O-SO 112 9,1 C 0,0 km/h (0 Bft)
03.10.2015 18:55 13,8 C 13,6 C 73 % 1016,3 hPa 0,0 mm 0,0 km/h (0 Bft) SO 135 9,0 C 0,0 km/h (0 Bft)
03.10.2015 19:00 13,1 C 13,3 C 72 % 1016,3 hPa 0,0 mm 0,0 km/h (0 Bft) S 180 8,2 C 0,0 km/h (0 Bft)
03.10.2015 19:05 12,5 C 12,9 C 73 % 1016,3 hPa 0,0 mm 0,0 km/h (0 Bft) S-SW 202 7,8 C 0,0 km/h (0 Bft)
03.10.2015 19:10 12,2 C 12,3 C 75 % 1016,3 hPa 0,0 mm 0,0 km/h (0 Bft) S 180 7,9 C 0,0 km/h (0 Bft)
03.10.2015 19:15 12,1 C 12,3 C 76 % 1016,5 hPa 0,0 mm 0,0 km/h (0 Bft) S-SO 157 8,0 C 0,0 km/h (0 Bft)
03.10.2015 19:20 11,7 C 11,6 C 76 % 1016,5 hPa 0,0 mm 0,0 km/h (0 Bft) S-SO 157 7,6 C 0,0 km/h (0 Bft)
03.10.2015 19:25 11,9 C 11,8 C 77 % 1016,5 hPa 0,0 mm 0,0 km/h (0 Bft) S-SO 157 8,0 C 0,0 km/h (0 Bft)
03.10.2015 19:30 11,7 C 11,5 C 77 % 1016,5 hPa 0,0 mm 0,0 km/h (0 Bft) S-SO 157 7,8 C 0,0 km/h (0 Bft)
03.10.2015 19:35 11,2 C 11,1 C 77 % 1016,2 hPa 0,0 mm 0,0 km/h (0 Bft) S 180 7,3 C 0,0 km/h (0 Bft)
03.10.2015 19:40 11,1 C 10,9 C 77 % 1016,2 hPa 0,0 mm 0,0 km/h (0 Bft) S-SO 157 7,2 C 0,0 km/h (0 Bft)
03.10.2015 19:45 11,1 C 10,9 C 77 % 1016,2 hPa 0,0 mm 0,0 km/h (0 Bft) SO 135 7,2 C 0,0 km/h (0 Bft)
03.10.2015 19:50 10,8 C 10,6 C 78 % 1016,2 hPa 0,0 mm 0,0 km/h (0 Bft) SO 135 7,1 C 0,0 km/h (0 Bft)
03.10.2015 19:55 10,8 C 10,8 C 79 % 1016,2 hPa 0,0 mm 0,0 km/h (0 Bft) S-SO 157 7,3 C 0,0 km/h (0 Bft)
03.10.2015 20:00 11,0 C 11,0 C 80 % 1016,2 hPa 0,0 mm 0,0 km/h (0 Bft) SO 135 7,7 C 0,0 km/h (0 Bft)
03.10.2015 20:05 11,1 C 11,1 C 80 % 1016,2 hPa 0,0 mm 0,0 km/h (0 Bft) SO 135 7,8 C 0,0 km/h (0 Bft)
03.10.2015 20:10 10,4 C 10,4 C 80 % 1016,2 hPa 0,0 mm 0,0 km/h (0 Bft) W-SW 247 7,1 C 0,0 km/h (0 Bft)
03.10.2015 20:15 10,1 C 10,0 C 79 % 1016,2 hPa 0,0 mm 0,0 km/h (0 Bft) S-SW 202 6,6 C 0,0 km/h (0 Bft)
03.10.2015 20:19 9,9 C 9,7 C 80 % 1016,2 hPa 0,0 mm 0,0 km/h (0 Bft) S 180 6,6 C 0,0 km/h (0 Bft)
03.10.2015 20:20 9,9 C 9,7 C 80 % 1016,2 hPa 0,0 mm 0,0 km/h (0 Bft) S 180 6,6 C 0,0 km/h (0 Bft)
03.10.2015 20:25 9,9 C 9,6 C 81 % 1016,2 hPa 0,0 mm 0,0 km/h (0 Bft) S-SO 157 6,8 C 0,0 km/h (0 Bft)
03.10.2015 20:30 9,8 C 9,7 C 80 % 1016,2 hPa 0,0 mm 0,0 km/h (0 Bft) S-SO 157 6,5 C 0,0 km/h (0 Bft)
03.10.2015 20:35 9,9 C 9,7 C 81 % 1016,0 hPa 0,0 mm 1,0 km/h (0 Bft) S 180 6,8 C 9,6 km/h (2 Bft)
03.10.2015 20:40 9,7 C 9,5 C 83 % 1016,0 hPa 0,0 mm 1,6 km/h (1 Bft) S-SO 157 7,0 C 0,0 km/h (0 Bft)
03.10.2015 20:45 9,3 C 9,2 C 82 % 1016,0 hPa 0,0 mm 1,3 km/h (1 Bft) S-SO 157 6,4 C 0,0 km/h (0 Bft)
03.10.2015 20:50 9,5 C 9,2 C 84 % 1016,0 hPa 0,0 mm 0,0 km/h (0 Bft) S 180 6,9 C 0,0 km/h (0 Bft)
03.10.2015 20:55 9,4 C 9,1 C 84 % 1016,1 hPa 0,0 mm 0,0 km/h (0 Bft) SO 135 6,8 C 0,0 km/h (0 Bft)
03.10.2015 21:00 9,3 C 9,0 C 84 % 1016,1 hPa 0,0 mm 0,3 km/h (0 Bft) S 180 6,7 C 0,0 km/h (0 Bft)
03.10.2015 21:05 9,1 C 8,9 C 84 % 1016,1 hPa 0,0 mm 0,3 km/h (0 Bft) S-SO 157 6,5 C 0,0 km/h (0 Bft)
03.10.2015 21:10 9,7 C 9,3 C 86 % 1016,1 hPa 0,0 mm 0,0 km/h (0 Bft) S-SO 157 7,5 C 0,0 km/h (0 Bft)
03.10.2015 21:15 9,8 C 9,5 C 86 % 1015,8 hPa 0,0 mm 0,0 km/h (0 Bft) S-SO 157 7,6 C 0,0 km/h (0 Bft)
03.10.2015 21:20 9,6 C 9,4 C 86 % 1015,8 hPa 0,0 mm 0,0 km/h (0 Bft) S-SO 157 7,4 C 0,0 km/h (0 Bft)
03.10.2015 21:25 9,4 C 9,2 C 83 % 1015,8 hPa 0,0 mm 0,0 km/h (0 Bft) SO 135 6,7 C 0,0 km/h (0 Bft)
03.10.2015 21:30 9,1 C 8,9 C 86 % 1015,8 hPa 0,0 mm 0,0 km/h (0 Bft) S-SO 157 6,9 C 0,0 km/h (0 Bft)
03.10.2015 21:35 9,1 C 8,8 C 86 % 1015,9 hPa 0,0 mm 0,0 km/h (0 Bft) S-SO 157 6,9 C 0,0 km/h (0 Bft)
03.10.2015 21:40 9,3 C 9,0 C 87 % 1015,9 hPa 0,0 mm 0,0 km/h (0 Bft) O-SO 112 7,2 C 0,0 km/h (0 Bft)
03.10.2015 21:45 9,1 C 8,9 C 83 % 1015,9 hPa 0,0 mm 0,0 km/h (0 Bft) SO 135 6,4 C 0,0 km/h (0 Bft)
03.10.2015 21:50 9,2 C 8,9 C 88 % 1015,9 hPa 0,0 mm 0,0 km/h (0 Bft) S-SO 157 7,3 C 0,0 km/h (0 Bft)
03.10.2015 21:55 8,8 C 8,7 C 88 % 1015,9 hPa 0,0 mm 0,0 km/h (0 Bft) O-SO 112 6,9 C 0,0 km/h (0 Bft)
03.10.2015 22:00 8,8 C 8,6 C 88 % 1015,9 hPa 0,0 mm 0,0 km/h (0 Bft) S 180 6,9 C 0,0 km/h (0 Bft)
03.10.2015 22:05 8,6 C 8,4 C 88 % 1015,9 hPa 0,0 mm 0,3 km/h (0 Bft) W-SW 247 6,7 C 0,0 km/h (0 Bft)
03.10.2015 22:10 8,9 C 8,6 C 88 % 1015,9 hPa 0,0 mm 0,3 km/h (0 Bft) SW 225 7,0 C 0,0 km/h (0 Bft)
03.10.2015 22:15 8,4 C 8,3 C 87 % 1015,8 hPa 0,0 mm 0,0 km/h (0 Bft) W-SW 247 6,4 C 0,0 km/h (0 Bft)
03.10.2015 22:20 8,2 C 8,0 C 87 % 1015,8 hPa 0,0 mm 0,0 km/h (0 Bft) W-SW 247 6,2 C 0,0 km/h (0 Bft)
03.10.2015 22:25 7,9 C 7,8 C 87 % 1015,8 hPa 0,0 mm 0,0 km/h (0 Bft) W-NW 292 5,9 C 0,0 km/h (0 Bft)
03.10.2015 22:30 7,9 C 7,7 C 87 % 1015,8 hPa 0,0 mm 0,0 km/h (0 Bft) W-SW 247 5,9 C 0,0 km/h (0 Bft)
03.10.2015 22:35 7,6 C 7,5 C 87 % 1015,7 hPa 0,0 mm 0,0 km/h (0 Bft) W-SW 247 5,6 C 0,0 km/h (0 Bft)
03.10.2015 22:40 8,0 C 7,7 C 87 % 1015,7 hPa 0,0 mm 0,0 km/h (0 Bft) SW 225 6,0 C 0,0 km/h (0 Bft)
03.10.2015 22:45 7,8 C 7,6 C 87 % 1015,7 hPa 0,0 mm 0,0 km/h (0 Bft) S-SO 157 5,8 C 0,0 km/h (0 Bft)
03.10.2015 22:50 7,6 C 7,5 C 87 % 1015,7 hPa 0,0 mm 0,0 km/h (0 Bft) S 180 5,6 C 0,0 km/h (0 Bft)
03.10.2015 22:55 8,2 C 7,9 C 88 % 1015,6 hPa 0,0 mm 0,0 km/h (0 Bft) S-SO 157 6,3 C 0,0 km/h (0 Bft)
03.10.2015 23:00 7,6 C 7,6 C 88 % 1015,6 hPa 0,0 mm 0,0 km/h (0 Bft) S-SW 202 5,7 C 0,0 km/h (0 Bft)
03.10.2015 23:05 7,3 C 7,3 C 88 % 1015,6 hPa 0,0 mm 0,0 km/h (0 Bft) S-SW 202 5,4 C 0,0 km/h (0 Bft)
03.10.2015 23:10 7,3 C 7,3 C 88 % 1015,6 hPa 0,0 mm 0,0 km/h (0 Bft) S 180 5,4 C 0,0 km/h (0 Bft)
03.10.2015 23:15 7,7 C 7,7 C 85 % 1015,6 hPa 0,0 mm 0,3 km/h (0 Bft) S-SW 202 5,3 C 3,6 km/h (1 Bft)
03.10.2015 23:20 8,1 C 7,9 C 89 % 1015,6 hPa 0,0 mm 0,8 km/h (0 Bft) S 180 6,4 C 0,0 km/h (0 Bft)
03.10.2015 23:25 7,9 C 7,8 C 85 % 1015,6 hPa 0,0 mm 1,0 km/h (0 Bft) SO 135 5,5 C 3,4 km/h (1 Bft)
03.10.2015 23:30 8,1 C 7,9 C 90 % 1015,6 hPa 0,0 mm 0,0 km/h (0 Bft) SO 135 6,6 C 0,0 km/h (0 Bft)
03.10.2015 23:35 7,9 C 7,8 C 90 % 1015,6 hPa 0,0 mm 0,0 km/h (0 Bft) SO 135 6,4 C 0,0 km/h (0 Bft)
03.10.2015 23:40 7,9 C 7,8 C 86 % 1015,6 hPa 0,0 mm 0,8 km/h (0 Bft) N-NO 22 5,7 C 0,0 km/h (0 Bft)
03.10.2015 23:45 7,5 C 7,4 C 90 % 1015,6 hPa 0,0 mm 0,8 km/h (0 Bft) N-NO 22 6,0 C 0,0 km/h (0 Bft)
03.10.2015 23:50 7,4 C 7,3 C 89 % 1015,6 hPa 0,0 mm 0,0 km/h (0 Bft) W-NW 292 5,7 C 0,0 km/h (0 Bft)
03.10.2015 23:55 7,3 C 7,1 C 89 % 1015,6 hPa 0,0 mm 0,5 km/h (0 Bft) W-SW 247 5,6 C 0,0 km/h (0 Bft)
_ Min-Zeit 23:55 23:55 15:30 06:30 - 23:50 - - 08:35 23:55
Minimum _ 7,3 C 7,1 C 54 % 1015,5 hPa - 0,0 km/h (0 Bft) - - 5,2 C 0,0 km/h (0 Bft)
_ Max-Zeit 15:25 15:25 23:45 11:50 23:55 12:15 - - 14:05 12:50
Maximum _ 20,5 C 25,0 C 90 % 1020,7 hPa 0,0 mm 9,8 km/h
NW (2 Bft)
- - 11,0 C 22,8 km/h
NW (4 Bft)
Durchschnitt _ 13,0 C 14,5 C 73 % 1017,2 hPa #0,0 mm 2,0 km/h (1 Bft) NW - 8,0 C 2,8 km/h (1 Bft)